This is the latest recevied weather packets stored in our database for station/object KC7UNY-13. If no packets are shown the sender has not sent any weather packets the latest 10 day(s).
| Time | Temp. | Humidity | Pressure | Rain* | Wind** | Luminosity | Snow |
|---|---|---|---|---|---|---|---|
| 1777829261 | 31.11° C | 28% | 1011.9 hPa | 0 mm | - | 564 W/m² | - |
| 1777828958 | 30.56° C | 28% | 1011.8 hPa | 0 mm | - | 542 W/m² | - |
| 1777828655 | 31.11° C | 27% | 1011.9 hPa | 0 mm | - | 392 W/m² | - |
| 1777828352 | 30.56° C | 28% | 1011.9 hPa | 0 mm | - | 444 W/m² | - |
| 1777828049 | 30° C | 29% | 1011.9 hPa | 0 mm | - | 492 W/m² | - |
| 1777827746 | 30.56° C | 28% | 1012 hPa | 0 mm | - | 330 W/m² | - |
| 1777827443 | 30° C | 29% | 1011.8 hPa | 0 mm | - | 392 W/m² | - |
| 1777827140 | 30° C | 28% | 1012.1 hPa | 0 mm | - | 356 W/m² | - |
| 1777826835 | 30° C | 29% | 1012.1 hPa | 0 mm | - | 465 W/m² | - |
| 1777826534 | 30° C | 29% | 1012.1 hPa | 0 mm | - | 394 W/m² | - |
| 1777826229 | 29.44° C | 30% | 1012.1 hPa | 0 mm | - | 313 W/m² | - |
| 1777825928 | 29.44° C | 30% | 1012.1 hPa | 0 mm | - | 319 W/m² | - |
| 1777825624 | 29.44° C | 30% | 1012 hPa | 0 mm | - | 314 W/m² | - |
| 1777825322 | 29.44° C | 30% | 1012 hPa | 0 mm | - | 332 W/m² | - |
| 1777825018 | 29.44° C | 30% | 1012 hPa | 0 mm | - | 404 W/m² | - |
| 1777824714 | 28.89° C | 31% | 1012.2 hPa | 0 mm | - | 299 W/m² | - |
| 1777824412 | 28.89° C | 31% | 1011.9 hPa | 0 mm | - | 242 W/m² | - |
| 1777824107 | 28.33° C | 31% | 1012.1 hPa | 0 mm | - | 295 W/m² | - |
| 1777823804 | 28.33° C | 32% | 1012 hPa | 0 mm | - | 239 W/m² | - |
| 1777823501 | 27.78° C | 32% | 1012.1 hPa | 0 mm | - | 217 W/m² | - |
| 1777823198 | 27.78° C | 32% | 1011.8 hPa | 0 mm | - | 195 W/m² | - |
| 1777822896 | 27.78° C | 32% | 1011.9 hPa | 0 mm | - | 197 W/m² | - |
| 1777822594 | 27.78° C | 32% | 1012 hPa | 0 mm | - | 211 W/m² | - |
| 1777822291 | 27.78° C | 32% | 1011.9 hPa | 0 mm | - | 236 W/m² | - |
| 1777821988 | 27.78° C | 33% | 1011.9 hPa | 0 mm | - | 219 W/m² | - |
* Rain latest hour (hover to see other rain measurements)
** Current wind speed in m/s (hover to see current wind gust speed)